Location: Croagnes
(43.9363°N, 5.3265°E)
Time: 22:04:40
(UTC+00:00)

Meteor 1-16 Rocket - Pass Details

Date: 30 September 2020
Orbit: 790 x 908 km, 81.2° (Epoch: 22 October)

Event Time Altitude Azimuth Distance (km) Brightness Sun altitude
Exits shadow 19:40:55 29° 41° (NE) 1,599 5.4 -25.6°
Drops below altitude 10° 19:43:55 10° 22° (NNE) 2,569 6.7 -26.1°
Sets 19:46:27 0° 17° (NNE) 3,499 7.5 -26.5°
